This is the latest recevied weather packets stored in our database for station/object N4XWC. If no packets are shown the sender has not sent any weather packets the latest 1 day(s).
| Time | Temp. | Humidity | Pressure | Rain* | Wind** | Luminosity | Snow |
|---|---|---|---|---|---|---|---|
| 1778010011 | 23.33° C | 59% | 1012.5 hPa | 0 mm | 0.89 m/s, 160° | - | - |
| 1778009711 | 23.33° C | 59% | 1012.5 hPa | 0 mm | 1.79 m/s, 240° | - | - |
| 1778009535 | 23.33° C | 61% | 1012.5 hPa | 0 mm | 0.89 m/s, 195° | - | - |
| 1778009410 | 23.33° C | 62% | 1012.5 hPa | 0 mm | 0.89 m/s, 241° | - | - |
| 1778009111 | 22.78° C | 63% | 1013 hPa | 0 mm | 0.45 m/s, 184° | - | - |
| 1778008934 | 22.78° C | 62% | 1013 hPa | 0 mm | 0.45 m/s, 193° | - | - |
| 1778008811 | 22.78° C | 63% | 1013 hPa | 0 mm | 0.89 m/s, 223° | - | - |
| 1778008511 | 22.22° C | 63% | 1013 hPa | 0 mm | 0.45 m/s, 195° | - | - |
| 1778008334 | 22.78° C | 62% | 1013 hPa | 0 mm | 2.68 m/s, 232° | - | - |
| 1778008210 | 22.78° C | 61% | 1013 hPa | 0 mm | 0.89 m/s, 193° | - | - |
| 1778007912 | 22.78° C | 61% | 1013 hPa | 0 mm | 0.89 m/s, 164° | - | - |
| 1778007734 | 22.78° C | 63% | 1013 hPa | 0 mm | 0 m/s | - | - |
| 1778007610 | 22.78° C | 63% | 1013 hPa | 0 mm | 1.34 m/s, 186° | - | - |
| 1778007310 | 22.22° C | 63% | 1013.4 hPa | 0 mm | 0.45 m/s, 213° | - | - |
| 1778007135 | 22.22° C | 63% | 1013.4 hPa | 0 mm | 0 m/s | - | - |
| 1778007012 | 22.22° C | 61% | 1013.4 hPa | 0 mm | 0 m/s | - | - |
| 1778006711 | 22.22° C | 61% | 1013.4 hPa | 0 mm | 2.68 m/s, 196° | - | - |
| 1778006534 | 22.22° C | 62% | 1013.4 hPa | 0 mm | 1.34 m/s, 251° | - | - |
| 1778006410 | 22.22° C | 61% | 1013.4 hPa | 0 mm | 0.45 m/s, 229° | - | - |
| 1778006112 | 22.22° C | 62% | 1013.4 hPa | 0 mm | 0.45 m/s, 196° | - | - |
| 1778005934 | 22.22° C | 62% | 1013.4 hPa | 0 mm | 0.89 m/s, 208° | - | - |
| 1778005811 | 22.22° C | 61% | 1013.4 hPa | 0 mm | 0.45 m/s, 189° | - | - |
| 1778005511 | 22.22° C | 62% | 1013.6 hPa | 0 mm | 2.24 m/s, 239° | - | - |
| 1778005334 | 22.22° C | 63% | 1013.6 hPa | 0 mm | 0.89 m/s, 250° | - | - |
| 1778005210 | 22.22° C | 62% | 1013.6 hPa | 0 mm | 0.45 m/s, 243° | - | - |
* Rain latest hour (hover to see other rain measurements)
** Current wind speed in m/s (hover to see current wind gust speed)